User: anonymous   Login
Location: Caltech
(34.1382°N, 118.1253°W)
Time: 17:26:43
(UTC-08:00)
Language:

SEDSat Delta rocket - Orbit

View from above orbital plane
View from above orbital plane
View from above satellite
View from above satellite

Ground track
Ground track

The orbit data is extracted from the following two-line orbital elements,

1 25510U 98061C   18047.81298167 +.00000142 +00000-0 +14969-4 0  9999
2 25510 031.4327 177.1177 0327632 090.5538 036.9083 14.37294540013045
Epoch (UTC): 16 February 2018 19:30:41
Eccentricity: 0.0327632
inclination: 31.4327°
perigee height: 533 km
apogee height: 1001 km
right ascension of ascending node: 177.1177°
argument of perigee: 90.5538°
revolutions per day: 14.37294540
mean anomaly at epoch: 36.9083°
orbit number at epoch: 1304

The dashed part of the orbit path shows where the satellite is in the earth's shadow,  

DLR